FW1358 Weather Reports


time (UTC)temp
C
wind
direction
speed
KPH
gust
KPH
rain 1hr
cm
rain 24hr
cm
rain mn
cm
humidity
%
barometer
mb
20260508195803 24 340 0.0 0.0 0.00 0.00 0.00 34 1013.4
20260508195306 24 340 0.0 0.0 0.00 0.00 0.00 35 1013.4
20260508192804 25 338 0.0 0.0 0.00 0.00 0.00 32 1013.9
20260508192306 25 338 0.0 1.6 0.00 0.00 0.00 32 1014.0
20260508191804 25 338 0.0 1.6 0.00 0.00 0.00 32 1014.1
20260508190804 25 333 0.0 1.6 0.00 0.00 0.00 35 1014.2
20260508184303 25 277 0.0 0.0 0.00 0.00 0.00 35 1014.6
20260508183803 25 277 0.0 0.0 0.00 0.00 0.00 34 1014.7
20260508182306 24 277 0.0 0.0 0.00 0.00 0.00 33 1015.0
20260508181803 23 277 0.0 0.0 0.00 0.00 0.00 34 1015.0
20260508181304 23 277 0.0 0.0 0.00 0.00 0.00 31 1015.1
20260508175803 23 277 0.0 0.0 0.00 0.00 0.00 32 1015.4
20260508174303 23 277 0.0 4.8 0.00 0.00 0.00 32 1015.8
20260508173304 23 202 0.0 0.0 0.00 0.00 0.00 34 1015.9
20260508165804 22 181 0.0 0.0 0.00 0.00 0.00 35 1016.3
20260508164304 21 181 0.0 0.0 0.00 0.00 0.00 36 1016.7
20260508163804 21 181 0.0 0.0 0.00 0.00 0.00 35 1016.8
20260508163304 21 181 0.0 0.0 0.00 0.00 0.00 35 1016.8
20260508160803 21 211 0.0 0.0 0.00 0.00 0.00 34 1017.1
20260508155306 20 211 0.0 0.0 0.00 0.00 0.00 37 1017.4
20260508153802 20 211 0.0 0.0 0.00 0.00 0.00 39 1017.6
20260508153302 19 211 0.0 0.0 0.00 0.00 0.00 43 1017.5
20260508152305 18 211 0.0 0.0 0.00 0.00 0.00 49 1017.6
20260508151303 18 211 0.0 0.0 0.00 0.00 0.00 44 1017.9
20260508150302 17 211 0.0 0.0 0.00 0.00 0.00 51 1018.1
20260508145802 17 211 0.0 0.0 0.00 0.00 0.00 53 1018.2
20260508144802 16 211 0.0 0.0 0.00 0.00 0.00 56 1018.3
20260508144303 16 211 0.0 0.0 0.00 0.00 0.00 59 1018.3
20260508142306 14 211 0.0 1.6 0.00 0.00 0.00 64 1018.3
20260508141802 14 211 0.0 1.6 0.00 0.00 0.00 67 1018.4
20260508140802 13 190 0.0 0.0 0.00 0.00 0.00 70 1018.4
20260508135803 12 190 0.0 0.0 0.00 0.00 0.00 73 1018.4
20260508131802 8 201 0.0 0.0 0.00 0.00 0.00 93 1018.4
20260508130302 8 201 0.0 0.0 0.00 0.00 0.00 93 1018.4
20260508123803 7 201 0.0 0.0 0.00 0.00 0.00 92 1018.3
20260508123302 7 201 0.0 0.0 0.00 0.00 0.00 92 1018.2
20260508122802 6 201 0.0 0.0 0.00 0.00 0.00 92 1018.2
20260508121803 6 201 0.0 0.0 0.00 0.00 0.00 91 1018.1
20260508121302 6 201 0.0 0.0 0.00 0.00 0.00 91 1018.0
20260508120803 6 201 0.0 0.0 0.00 0.00 0.00 90 1018.0
20260508120302 6 201 0.0 0.0 0.00 0.00 0.00 91 1018.0
20260508115802 6 201 0.0 0.0 0.00 0.00 0.00 91 1018.1
20260508114302 6 201 0.0 0.0 0.00 0.00 0.00 91 1017.7
20260508112803 6 201 0.0 0.0 0.00 0.00 0.00 90 1017.6
20260508112306 6 201 0.0 0.0 0.00 0.00 0.00 90 1017.6
20260508111802 6 201 0.0 0.0 0.00 0.00 0.00 90 1017.5
20260508111302 6 201 0.0 0.0 0.00 0.00 0.00 90 1017.4
20260508103802 6 201 0.0 0.0 0.00 0.00 0.00 90 1017.0
20260508103302 6 201 0.0 0.0 0.00 0.00 0.00 90 1017.0
20260508101302 6 201 0.0 0.0 0.00 0.00 0.00 89 1017.0
20260508093802 6 201 0.0 0.0 0.00 0.00 0.00 89 1016.8
20260508092312 7 201 0.0 0.0 0.00 0.00 0.00 88 1016.9
20260508091302 7 201 0.0 0.0 0.00 0.03 0.00 87 1016.8
20260508090303 7 201 0.0 0.0 0.00 0.03 0.00 86 1016.8
20260508085803 7 201 0.0 0.0 0.00 0.03 0.00 87 1016.7
20260508085306 7 201 0.0 0.0 0.00 0.03 0.00 87 1016.7
20260508084303 7 201 0.0 0.0 0.00 0.03 0.00 88 1016.6
20260508082306 7 201 0.0 0.0 0.00 0.03 0.00 88 1016.5
20260508081802 7 201 0.0 0.0 0.00 0.03 0.00 87 1016.6
20260508081303 7 201 0.0 0.0 0.00 0.03 0.00 86 1016.6
20260508075803 7 201 0.0 0.0 0.00 0.03 0.00 86 1016.8
20260508075308 8 201 0.0 0.0 0.00 0.03 0.00 87 1016.7
20260508073303 8 201 0.0 0.0 0.00 0.03 0.00 87 1016.6
20260508071303 8 201 0.0 0.0 0.00 0.03 0.00 86 1016.6
20260508064803 8 201 0.0 0.0 0.00 0.03 0.00 84 1016.9
20260508063803 8 201 0.0 0.0 0.00 0.03 0.00 85 1016.8
20260508063302 9 201 0.0 0.0 0.00 0.03 0.00 85 1016.8
20260508062306 9 201 0.0 0.0 0.00 0.03 0.00 86 1016.8
20260508055803 9 201 0.0 0.0 0.00 0.03 0.00 84 1017.0
20260508054803 9 201 0.0 0.0 0.00 0.03 0.00 84 1017.0
20260508054303 9 201 0.0 0.0 0.00 0.03 0.00 84 1016.9
20260508051303 10 201 0.0 0.0 0.00 0.03 0.00 80 1017.1
20260508050813 10 201 0.0 0.0 0.00 0.03 0.00 80 1017.0
20260508050303 10 201 0.0 0.0 0.00 0.03 0.00 79 1017.0
20260508044803 11 201 0.0 0.0 0.00 0.03 0.03 77 1016.9
20260508043803 11 201 0.0 0.0 0.00 0.03 0.03 76 1017.0
20260508041803 11 201 0.0 0.0 0.00 0.03 0.03 75 1017.0
20260508041303 11 201 0.0 0.0 0.00 0.03 0.03 73 1017.0
20260508040302 11 201 0.0 0.0 0.00 0.03 0.03 70 1017.1
20260508035306 12 201 0.0 0.0 0.00 0.03 0.03 69 1017.1
20260508034803 12 201 0.0 0.0 0.00 0.03 0.03 69 1017.0
20260508034304 12 201 0.0 0.0 0.00 0.03 0.03 70 1017.0
20260508032306 12 201 0.0 0.0 0.00 0.03 0.03 67 1017.0
20260508031302 12 201 0.0 0.0 0.00 0.03 0.03 67 1016.9
20260508030803 12 201 0.0 0.0 0.00 0.03 0.03 67 1016.9
20260508030302 13 201 0.0 0.0 0.00 0.03 0.03 66 1016.7
20260508025802 13 201 0.0 0.0 0.00 0.03 0.03 66 1016.7
20260508025305 13 201 0.0 0.0 0.00 0.03 0.03 67 1016.7
20260508023803 13 201 0.0 0.0 0.00 0.03 0.03 64 1016.8
20260508023303 13 201 0.0 0.0 0.00 0.03 0.03 62 1016.8
20260508022803 13 201 0.0 0.0 0.00 0.03 0.03 61 1016.7
20260508021802 14 201 0.0 0.0 0.00 0.03 0.03 61 1016.6
20260508015306 14 201 0.0 0.0 0.00 0.03 0.03 57 1016.6
20260508014303 15 201 0.0 0.0 0.00 0.03 0.03 57 1016.5
20260508011803 15 201 0.0 0.0 0.00 0.08 0.03 56 1015.9
20260508011302 15 201 0.0 0.0 0.00 0.08 0.03 57 1015.7
20260508010802 15 201 0.0 0.0 0.00 0.08 0.03 56 1015.7
20260508010302 16 201 0.0 0.0 0.00 0.08 0.03 54 1015.7
20260508005305 16 201 0.0 0.0 0.00 0.08 0.03 52 1015.6
20260508004803 16 201 0.0 0.0 0.00 0.08 0.03 54 1015.5
20260508003302 16 201 0.0 0.0 0.00 0.08 0.03 51 1015.5
20260508002803 16 201 0.0 0.0 0.00 0.08 0.03 51 1015.5
20260508001803 16 201 0.0 0.0 0.00 0.08 0.03 51 1015.4
20260508001303 17 201 0.0 0.0 0.00 0.08 0.03 52 1015.4
20260507235803 17 201 0.0 0.0 0.00 0.08 0.03 50 1015.1
20260507235306 17 201 0.0 0.0 0.00 0.08 0.03 49 1015.1
20260507234803 17 201 0.0 0.0 0.00 0.08 0.03 50 1015.0
20260507233303 17 201 0.0 0.0 0.00 0.08 0.03 48 1014.9
20260507232803 17 201 0.0 0.0 0.00 0.08 0.03 48 1014.9
20260507231803 18 201 0.0 0.0 0.00 0.08 0.03 46 1014.8
20260507231303 18 201 0.0 0.0 0.00 0.08 0.03 46 1014.8
20260507230802 18 201 0.0 0.0 0.00 0.08 0.03 47 1014.7
20260507225803 18 201 0.0 0.0 0.00 0.08 0.03 44 1014.9
20260507224803 18 201 0.0 0.0 0.00 0.08 0.03 49 1014.9
20260507223802 18 201 0.0 0.0 0.00 0.08 0.03 51 1015.1
20260507223303 18 201 0.0 0.0 0.00 0.08 0.03 51 1015.2
20260507222802 19 201 0.0 0.0 0.00 0.08 0.03 48 1015.2
20260507222306 19 201 0.0 0.0 0.00 0.08 0.03 42 1015.1
20260507220303 20 201 0.0 0.0 0.00 0.13 0.03 45 1015.1
20260507215803 20 201 0.0 0.0 0.00 0.13 0.03 43 1015.2
20260507215306 20 201 0.0 0.0 0.00 0.13 0.03 42 1015.2
20260507214303 20 201 0.0 0.0 0.00 0.13 0.03 46 1015.2
20260507213302 20 201 0.0 0.0 0.00 0.13 0.03 48 1015.1
20260507212803 20 201 0.0 0.0 0.00 0.13 0.03 46 1015.0
20260507211803 20 201 0.0 3.2 0.00 0.13 0.03 48 1015.1
20260507211302 20 201 0.0 3.2 0.00 0.13 0.03 49 1015.0
20260507210303 20 0 0.0 0.0 0.00 0.13 0.03 42 1014.9
20260507205306 20 0 0.0 0.0 0.00 0.13 0.03 48 1015.0
20260507204303 21 0 0.0 1.6 0.00 0.13 0.03 44 1014.9
20260507202802 21 241 0.0 0.0 0.00 0.13 0.03 43 1015.0
20260507201803 21 241 0.0 0.0 0.00 0.13 0.03 45 1015.0
20260507201303 21 241 0.0 0.0 0.00 0.13 0.03 43 1015.0
20260507200802 20 241 0.0 0.0 0.00 0.13 0.03 44 1015.1